This is the latest recevied weather packets stored in our database for station/object N2WH. If no packets are shown the sender has not sent any weather packets the latest 10 day(s).
| Time | Temp. | Humidity | Pressure | Rain* | Wind** | Luminosity | Snow |
|---|---|---|---|---|---|---|---|
| 1777825805 | 11.11° C | 44% | 1013 hPa | 0 mm | - | 799 W/m² | - |
| 1777825503 | 11.11° C | 42% | 1013 hPa | 0 mm | - | 299 W/m² | - |
| 1777825200 | 11.11° C | 44% | 1013.1 hPa | 0 mm | - | 373 W/m² | - |
| 1777824896 | 11.11° C | 45% | 1012.8 hPa | 0 mm | - | 893 W/m² | - |
| 1777824593 | 11.67° C | 41% | 1013 hPa | 0 mm | - | 147 W/m² | - |
| 1777824290 | 11.67° C | 44% | 1012.7 hPa | 0 mm | - | 326 W/m² | - |
| 1777823985 | 10.56° C | 44% | 1013.2 hPa | 0 mm | - | 535 W/m² | - |
| 1777823682 | 10° C | 44% | 1012.9 hPa | 0 mm | - | 350 W/m² | - |
| 1777823379 | 10.56° C | 43% | 1013 hPa | 0 mm | - | 440 W/m² | - |
| 1777823077 | 10° C | 42% | 1013.1 hPa | 0 mm | - | 576 W/m² | - |
| 1777822775 | 11.11° C | 43% | 1013 hPa | 0 mm | - | 246 W/m² | - |
| 1777822472 | 10° C | 46% | 1013 hPa | 0 mm | - | 482 W/m² | - |
| 1777822170 | 10° C | 45% | 1013.3 hPa | 0 mm | - | 253 W/m² | - |
| 1777821867 | 10.56° C | 45% | 1013.2 hPa | 0 mm | - | 194 W/m² | - |
| 1777821564 | 9.44° C | 45% | 1013.1 hPa | 0 mm | - | 303 W/m² | - |
| 1777821262 | 9.44° C | 48% | 1013.3 hPa | 0 mm | - | 302 W/m² | - |
| 1777820959 | 8.33° C | 49% | 1013.1 hPa | 0 mm | - | 133 W/m² | - |
| 1777820655 | 8.89° C | 47% | 1013.3 hPa | 0 mm | - | 102 W/m² | - |
| 1777820351 | 9.44° C | 48% | 1013.3 hPa | 0 mm | - | 151 W/m² | - |
| 1777820049 | 9.44° C | 48% | 1013.2 hPa | 0 mm | - | 182 W/m² | - |
| 1777819746 | 9.44° C | 45% | 1013 hPa | 0 mm | - | 134 W/m² | - |
| 1777819444 | 10° C | 43% | 1013.2 hPa | 0 mm | - | 139 W/m² | - |
| 1777819142 | 11.11° C | 42% | 1013.2 hPa | 0 mm | - | 199 W/m² | - |
| 1777818838 | 12.22° C | 42% | 1013 hPa | 0 mm | - | 744 W/m² | - |
| 1777818534 | 11.67° C | 40% | 1013 hPa | 0 mm | - | 750 W/m² | - |
* Rain latest hour (hover to see other rain measurements)
** Current wind speed in m/s (hover to see current wind gust speed)